Home > Weather > Little Rock > Past weeks

Flag for USA Past Weather in Little Rock, Arkansas, USA — Yesterday and Last 2 Weeks

Now
78 °F

Passing clouds.


Feels Like: 81 °F
Forecast: 75 / 89 °F
Wind: 3 mph from Southwest

Location: Adams Field

Current Time: Jul 28, 2016 at 7:25:54 AM

Latest Report: Jul 28, 2016 at 6:53 AM


Visibility: 10 mi

Pressure: 29.94 "Hg

Humidity: 84%

Dew Point: 73 °F

Location of Little RockLocation

Past Weather in Little Rock — Graph

°F

Little Rock Temperature Yesterday

Maximum temperature yesterday: 91 °F (at 12:53 PM)
Minimum temperature yesterday: 77 °F (at 3:53 PM)
Average temperature yesterday: 82 °F

High & Low Weather Summary for the Past Weeks

 TemperatureHumidityPressure
High103 °F (Jul 22, 2:53 PM)91% (Jul 15, 6:53 AM)30.23 "Hg (Jul 15, 6:53 AM)
Low71 °F (Jul 14, 6:53 PM)37% (Jul 22, 2:53 PM)29.87 "Hg (Jul 23, 3:53 PM)
Average86 °F68%30.03 "Hg
* Reported Jul 13 5:53 AM — Jul 28 5:53 AM, Little Rock, Weather by CustomWeather, © 2016

Note: Actual official high and low records may vary slightly from our data, if they occured in-between our weather recording intervals... More about our weather records

Advertising

Little Rock Weather History for the Previous 24 Hours

Scroll right to see more
 ConditionsComfort  
Time TempWeatherWind HumidityBarometerVisibility
5:53 AM
Thu, Jul 28
78 °FPassing clouds.7 mph84%29.94 "Hg10 mi
4:53 AM78 °FPassing clouds.7 mph87%29.93 "Hg10 mi
3:53 AM78 °FOvercast.6 mph84%29.93 "Hg10 mi
2:53 AM77 °FPartly cloudy.No wind88%29.93 "Hg10 mi
1:53 AM78 °FMostly cloudy.3 mph84%29.94 "Hg10 mi
12:53 AM78 °FPassing clouds.3 mph84%29.93 "Hg10 mi
11:53 PM
Wed, Jul 27
78 °FPartly cloudy.3 mph87%29.92 "Hg10 mi
10:53 PM78 °FPassing clouds.6 mph87%29.91 "Hg10 mi
9:53 PM79 °FPartly cloudy.No wind84%29.92 "Hg10 mi
8:53 PM80 °FBroken clouds.No wind79%29.92 "Hg10 mi
7:53 PM80 °FPartly sunny.6 mph81%29.90 "Hg10 mi
6:53 PM82 °FPartly sunny.No wind77%29.89 "Hg10 mi
5:53 PM80 °FLight rain. More clouds than sun.5 mph81%29.90 "Hg10 mi
4:53 PM78 °FLight rain. More clouds than sun.No wind84%29.94 "Hg7 mi
3:53 PM77 °FThunderstorms. Fog.6 mph88%29.92 "Hg6 mi
2:53 PM82 °FThunderstorms. Mostly cloudy.3 mph74%29.95 "Hg7 mi
2:04 PM82 °FThunderstorms. Mostly cloudy.13 mph74%29.92 "Hg7 mi
1:53 PM83 °FLight rain. Mostly cloudy.20 mph74%29.91 "Hg7 mi
12:53 PM91 °FBroken clouds.6 mph61%29.92 "Hg10 mi
11:53 AM89 °FBroken clouds.5 mph65%29.95 "Hg10 mi
10:53 AM88 °FBroken clouds.6 mph67%29.96 "Hg10 mi
9:53 AM87 °FBroken clouds.3 mph67%29.96 "Hg10 mi
8:53 AM85 °FPartly sunny.3 mph72%29.95 "Hg10 mi
7:53 AM83 °FPartly sunny.5 mph74%29.95 "Hg10 mi
Weather by CustomWeather, © 2016

See weather overviewHow to use our weather pages